GW3261 Weather Reports


time (UTC)temp
F
wind
direction
speed
knots
gust
knots
rain 1hr
in
rain 24hr
in
rain mn
in
humidity
%
barometer
mb
20260906174535 100 67 4.3 9.6 0.00 0.00 0.00 40 1012.7
20260906173014 98 109 3.5 12.2 0.00 0.00 0.00 41 1012.9
20260906171557 99 58 2.6 8.7 0.00 0.00 0.00 41 1013.2
20260906170040 98 77 4.3 9.6 0.00 0.00 0.00 42 1013.3
20260906164512 98 86 1.7 7.8 0.00 0.00 0.00 44 1013.5
20260906163103 97 74 4.3 8.7 0.00 0.00 0.00 45 1013.7
20260906161544 97 58 5.2 8.7 0.00 0.00 0.00 45 1013.8
20260906160020 95 92 4.3 7.8 0.00 0.00 0.00 46 1013.9
20260906154504 94 125 3.5 7.0 0.00 0.00 0.00 48 1013.7
20260906153040 93 48 3.5 7.0 0.00 0.00 0.00 49 1013.8
20260906151523 92 49 2.6 5.2 0.00 0.00 0.00 51 1013.6
20260906150059 91 48 0.9 3.5 0.00 0.00 0.00 52 1013.6
20260906144533 90 134 0.0 2.6 0.00 0.00 0.00 54 1013.6
20260906143019 88 181 2.6 4.3 0.00 0.00 0.00 58 1013.7
20260906141543 86 151 1.7 3.5 0.00 0.00 0.00 62 1013.8
20260906140031 85 167 1.7 5.2 0.00 0.00 0.00 63 1013.6
20260906134504 84 159 2.6 4.3 0.00 0.00 0.00 65 1013.6
20260906133044 81 175 0.9 2.6 0.00 0.00 0.00 68 1013.4
20260906131532 79 175 0.0 2.6 0.00 0.00 0.00 72 1013.4
20260906130005 78 176 0.0 2.6 0.00 0.00 0.00 75 1013.5
20260906124547 77 178 0.9 2.6 0.00 0.00 0.00 76 1013.4
20260906123034 76 178 0.9 3.5 0.00 0.00 0.00 76 1013.1
20260906121516 76 173 1.7 3.5 0.00 0.00 0.00 76 1012.8
20260906120111 75 172 0.9 2.6 0.00 0.00 0.00 77 1012.6
20260906114539 75 172 0.9 2.6 0.00 0.00 0.00 77 1012.4
20260906113025 75 172 0.9 2.6 0.00 0.00 0.00 78 1012.3
20260906111510 74 177 0.9 2.6 0.00 0.00 0.00 78 1012.3
20260906110047 75 177 0.0 0.0 0.00 0.00 0.00 77 1012.3
20260906104536 75 177 0.0 0.0 0.00 0.00 0.00 76 1012.3
20260906103020 75 178 0.0 0.9 0.00 0.00 0.00 76 1012.3
20260906101557 75 178 0.9 2.6 0.00 0.00 0.00 75 1012.2
20260906100040 76 178 0.9 2.6 0.00 0.00 0.00 75 1012.1
20260906094534 76 184 1.7 2.6 0.00 0.00 0.00 75 1011.9
20260906093004 76 185 0.0 0.0 0.00 0.00 0.00 74 1012.1
20260906091543 76 185 0.0 0.0 0.00 0.00 0.00 74 1011.9
20260906090027 76 185 0.0 0.0 0.00 0.00 0.00 74 1011.9
20260906084515 76 185 0.0 1.7 0.00 0.00 0.00 73 1011.8
20260906083055 77 185 0.0 0.0 0.00 0.00 0.00 72 1011.8
20260906081538 77 185 0.9 2.6 0.00 0.00 0.00 73 1011.8
20260906080028 76 194 0.0 0.0 0.00 0.00 0.00 73 1011.7
20260906074601 76 194 0.0 0.0 0.00 0.00 0.00 74 1011.7
20260906074502 76 194 0.0 0.0 0.00 0.00 0.00 75 1011.8
20260906073043 76 194 0.0 0.0 0.00 0.00 0.00 73 1011.8
20260906071526 77 194 0.0 0.0 0.00 0.00 0.00 72 1011.9
20260906070015 77 194 0.0 1.7 0.00 0.00 0.00 72 1012.0
20260906064559 77 194 0.0 3.5 0.00 0.00 0.00 72 1012.0
20260906064502 77 194 0.0 3.5 0.00 0.00 0.00 72 1012.1
20260906063041 78 148 0.0 1.7 0.00 0.00 0.00 71 1012.2
20260906061518 79 148 2.6 3.5 0.00 0.00 0.00 69 1012.0
20260906060100 79 61 0.0 1.7 0.00 0.00 0.00 69 1012.1
20260906060002 79 61 0.0 1.7 0.00 0.00 0.00 68 1012.1
20260906054537 80 61 0.9 2.6 0.00 0.00 0.00 67 1012.0
20260906053022 80 61 1.7 2.6 0.00 0.00 0.00 66 1012.0
20260906051508 80 61 1.7 2.6 0.00 0.00 0.00 67 1011.8
20260906050044 80 61 0.9 2.6 0.00 0.00 0.00 67 1011.8
20260906044523 80 61 0.9 1.7 0.00 0.00 0.00 67 1011.9
20260906043017 81 61 0.9 2.6 0.00 0.00 0.00 65 1012.0
20260906041600 81 61 1.7 3.5 0.00 0.00 0.00 63 1012.0
20260906040038 82 61 1.7 3.5 0.00 0.00 0.00 62 1011.9
20260906034534 83 61 0.9 3.5 0.00 0.00 0.00 62 1011.7
20260906033022 83 61 1.7 3.5 0.00 0.00 0.00 62 1011.7
20260906031551 84 61 0.0 4.3 0.00 0.00 0.00 60 1011.5
20260906030034 85 121 0.9 7.8 0.00 0.00 0.00 59 1011.5
20260906024519 85 105 1.7 3.5 0.00 0.00 0.00 58 1011.3
20260906023009 85 101 2.6 5.2 0.00 0.00 0.00 57 1011.2
20260906021551 86 108 0.9 5.2 0.00 0.00 0.00 56 1011.0
20260906020045 87 96 1.7 3.5 0.00 0.00 0.00 54 1010.8
20260906014534 89 91 3.5 6.1 0.00 0.00 0.00 52 1010.7
20260906013013 89 78 5.2 9.6 0.00 0.00 0.00 50 1010.5
20260906011549 90 67 7.8 10.4 0.00 0.00 0.00 50 1010.6
20260906010033 90 97 3.5 6.1 0.00 0.00 0.00 49 1010.4
20260906004533 92 85 4.3 7.8 0.00 0.00 0.00 47 1010.5
20260906003003 94 80 6.1 9.6 0.00 0.00 0.00 45 1010.4
20260906001549 94 74 5.2 10.4 0.00 0.00 0.00 44 1010.5
20260906000033 96 68 7.0 11.3 0.00 0.00 0.00 42 1010.4
20260905234525 97 88 2.6 5.2 0.00 0.00 0.00 37 1010.4
20260905233011 98 94 2.6 7.0 0.00 0.00 0.00 37 1010.2
20260905231549 98 76 3.5 7.0 0.00 0.00 0.00 36 1010.3
20260905230035 99 88 4.3 8.7 0.00 0.00 0.00 36 1010.2
20260905224524 99 62 5.2 8.7 0.00 0.00 0.00 36 1010.1
20260905223056 100 47 3.5 7.8 0.00 0.00 0.00 35 1010.1
20260905223001 100 47 3.5 7.8 0.00 0.00 0.00 36 1010.1
20260905221544 100 82 0.9 6.1 0.00 0.00 0.00 36 1010.2
20260905220023 101 29 0.9 3.5 0.00 0.00 0.00 34 1010.3
20260905214511 100 234 2.6 6.1 0.00 0.00 0.00 35 1010.5
20260905213048 100 30 3.5 8.7 0.00 0.00 0.00 36 1010.5
20260905211540 100 271 4.3 7.8 0.00 0.00 0.00 36 1010.7
20260905210016 100 5 2.6 7.0 0.00 0.00 0.00 36 1011.0
20260905204602 101 66 1.7 7.8 0.00 0.00 0.00 35 1011.2
20260905203037 101 88 2.6 8.7 0.00 0.00 0.00 38 1011.4
20260905201522 100 111 6.1 12.2 0.00 0.00 0.00 39 1011.5
20260905200106 101 40 0.9 6.1 0.00 0.00 0.00 39 1011.7
20260905200005 100 213 0.9 6.1 0.00 0.00 0.00 38 1011.7
20260905194548 100 166 3.5 7.0 0.00 0.00 0.00 39 1011.8
20260905193022 99 73 6.1 10.4 0.00 0.00 0.00 40 1012.0
20260905191504 100 41 7.0 12.2 0.00 0.00 0.00 40 1012.1
20260905190049 99 351 4.3 10.4 0.00 0.00 0.00 40 1012.5
20260905184525 98 44 4.3 13.9 0.00 0.00 0.00 41 1012.9
20260905183006 96 288 2.6 9.6 0.00 0.00 0.00 44 1013.0
20260905181547 96 360 5.2 11.3 0.00 0.00 0.00 45 1013.2
20260905180030 96 315 1.7 3.5 0.00 0.00 0.00 46 1013.3